STARLINK-1738 (46336 NORAD) Tracking and Keplerian Element Data

This shows tracking and keplerian element data for the satellite.

Feedback or suggestion? Click here.




ElementValue
Catalog46336
NameSTARLINK-1738
Epoch Orbit1515
Epoch Day339.16667824
Epoch Year2020
RAAN342.8562
Inclination53.0019
Eccentricity0.0001228
Argument of Perigee78.7656
Mean Anonmoly248.8062
Mean Motion15.18793183
Decay Rate-0.01053431
L11 46336U 20062M 20339.16667824 -.01053431 00000-0 -54614-1 0 9999
L22 46336 53.0019 342.8562 0001228 78.7656 248.8062 15.18793183 15152

Live tracking and technical data element details for STARLINK-1738 (NORAD 46336). STARLINK-1738 can be tracked NOW for your location showing map with azimuth and elevation plus other details from your city location.

Track the satellite on the map from your city or location and see movement details for azimuth, elevation, latitude, longitude, range, height, and movement on the map or in text.







IsCatalogInMostPopularTable: catalog: 46336, numindb: 28
Update: records affected: 1



GetName: 46336 STARLINK-1738

Hit Count: updated at: Sun, 06 Dec 2020 00:55:24 GMT